Location: Eimen
(51.8766°N, 9.7806°E)
Time: 09:40:38
(UTC+00:00)

Cosmos 2322 Rocket - Visible Passes

Search period start: 20 May 2026 00:00
Search period end: 30 May 2026 00:00
Orbit: 832 x 850 km, 71.0° (Epoch: 20 May)

Date Brightness Start Highest point End Pass type
(mag) Time Alt. Az. Time Alt. Az. Time Alt. Az.
20 May 4.0 21:03:09 10° NW 21:07:31 23° WSW 21:11:51 10° SSW visible
21 May 4.0 20:47:40 10° NW 20:52:07 24° WSW 20:56:35 10° SSW visible
22 May 4.0 20:32:11 10° NW 20:36:45 26° WSW 20:41:18 10° SSW visible
23 May 4.0 20:16:41 10° NW 20:21:22 27° WSW 20:26:01 10° SSW visible
24 May 3.9 20:01:13 10° NW 20:05:59 28° WSW 20:10:44 10° SSW visible
